Regional Weather Roundup
Issued by NWS

Home | Current Version | Previous Version | Text Only | Print | Product List | Glossary On
Versions: 1 2 3 4 5 6 7 8 9 10 11 12 13 14 15 16 17 18 19 20 21 22 23 24 25 26 27 28 29 30 31 32 33 34 35 36 37 38 39 40 41 42 43 44 45 46 47 48 49 50
000
ASUS46 KPQR 290910
RWROR

OREGON REGIONAL WEATHER ROUNDUP
NATIONAL WEATHER SERVICE PORTLAND OR
100 AM PST THU JAN 29 2015

NOTE: "FAIR" INDICATES FEW OR NO CLOUDS BELOW 12,000 FEET WITH
NO SIGNIFICANT WEATHER AND/OR OBSTRUCTIONS TO VISIBILITY.

ORZ001>013-291000-
NORTHWEST OREGON


CITY           SKY/WX    TMP DP  RH WIND       PRES   REMARKS
ASTORIA        CLOUDY    46  44  93 CALM      30.30F
NEWPORT        CLOUDY    50  46  87 CALM      30.31F
PORTLAND       NOT AVBL
VANCOUVER WA   CLOUDY    43  41  93 CALM      30.33S
SCAPPOOSE      FOG       45  44  97 CALM      30.33R VSB 1/2
HILLSBORO      CLOUDY    45  45 100 NW3       30.32S FOG
AURORA         CLOUDY    47  43  86 N7        30.32S
MCMINNVILLE    CLOUDY    45  44  97 N3        30.32S FOG
SALEM          CLOUDY    49  47  93 CALM      30.30S
CORVALLIS      CLOUDY    48  46  93 CALM      30.32S
EUGENE         CLOUDY    50  48  93 CALM      30.31S FOG
$$

ORZ021-028-291000-
SOUTHWEST OREGON


CITY           SKY/WX    TMP DP  RH WIND       PRES   REMARKS
NORTH BEND     MOCLDY    46  46 100 CALM      30.29S
BROOKINGS      CLOUDY    49  49 100 CALM      30.25F
ROSEBURG       CLOUDY    45  43  93 CALM      30.30S FOG
SEXTON SUMMIT  MOCLDY    48  29  47 E3        30.26F
MEDFORD        PTCLDY    39  36  89 CALM      30.29S
$$

ORZ014>016-041-291000-
COLUMBIA GORGE


CITY           SKY/WX    TMP DP  RH WIND       PRES   REMARKS
TROUTDALE      MOCLDY    46  38  73 E25G33    30.31S
THE DALLES     CLOUDY    41  36  82 E6        30.49S
$$

ORZ029>031-041-044-049-050-061>064-502-503-505>511-291000-
EASTERN OREGON


CITY           SKY/WX    TMP DP  RH WIND       PRES   REMARKS
REDMOND        CLOUDY    33  32  96 CALM      30.35R
BEND           CLOUDY    34  32  93 CALM      30.36R
PRINEVILLE     PTCLDY    32  32 100 CALM      30.36R
KLAMATH FALLS  PTCLDY    31  28  89 NE3       30.30S
LAKEVIEW       MOCLDY    34  28  80 NW9       30.32S WCI  26
HERMISTON      CLOUDY    38  35  89 N7        30.47S WCI  33
PENDLETON      CLOUDY    34  33  96 NE5       30.43S FOG     WCI  30
JOHN DAY       CLEAR     37  32  83 SE8       30.36R WCI  30
MEACHAM        CLEAR     25  23  92 CALM      30.35S
LA GRANDE      CLEAR     30  23  74 CALM      30.38S
BAKER CITY     FOG       24  23  96 CALM      30.39R VSB 1/2
BURNS          MOCLDY    31  28  89 W5        30.36F WCI  26
ROME             N/A     32  29  88 NE7       30.35S WCI  26
ONTARIO        FOG       30  28  92 CALM      30.44R VSB 1/4
$$


USA.gov is the U.S. government's official web portal to all federal, state and local government web resources and services.